Location: Banios
(43.0451°N, 0.2335°E)
Time: 17:40:08
(UTC+00:00)

SWAS - Visible Passes

Search period start: 14 May 2021 00:00
Search period end: 24 May 2021 00:00
Orbit: 578 x 592 km, 69.9° (Epoch: 13 May)

Date Brightness Start Highest point End Pass type
(mag) Time Alt. Az. Time Alt. Az. Time Alt. Az.
14 May 4.8 03:38:42 10° SSW 03:42:59 66° ESE 03:47:16 10° NNE visible
15 May 7.3 02:11:02 10° ESE 02:11:36 10° E 02:12:11 10° E visible
15 May 4.5 03:45:13 10° SSW 03:49:32 76° WNW 03:53:52 10° NNE visible
16 May 6.8 02:15:21 11° SE 02:17:56 17° ESE 02:20:44 10° ENE visible
16 May 5.0 03:51:59 10° SW 03:56:09 47° WNW 04:00:20 10° NNE visible
17 May 6.1 02:22:04 17° SSE 02:24:20 27° ESE 02:27:58 10° NE visible
17 May 5.6 03:59:00 10° WSW 04:02:50 30° NW 04:06:40 10° N visible
18 May 5.3 02:28:43 25° SSE 02:30:46 43° ESE 02:34:53 10° NE visible
19 May 4.5 02:35:20 32° SSW 02:37:16 73° ESE 02:41:35 10° NNE visible
20 May 7.0 01:05:27 11° ESE 01:05:51 11° E 01:07:12 10° E visible
20 May 4.5 02:41:53 31° SW 02:43:49 70° WNW 02:48:09 10° NNE visible
21 May 6.4 01:11:58 18° ESE 01:12:11 18° ESE 01:15:11 10° ENE visible
21 May 5.1 02:48:24 25° WSW 02:50:27 43° WNW 02:54:36 10° NNE visible
22 May 5.8 01:18:26 29° ESE 01:18:35 29° ESE 01:22:20 10° NE visible
22 May 5.8 02:54:52 18° W 02:57:08 28° NW 03:00:54 10° N visible
23 May 4.9 01:24:52 47° ESE 01:25:02 48° ESE 01:29:12 10° NE visible
23 May 6.4 03:01:18 12° W 03:03:54 19° NW 03:07:03 10° N visible
